Flag Weather past 2 weeks in Makkah, Saudi Arabia

Now
95 °F

Passing clouds.


Feels Like: 98 °F
Forecast: 74 / 94 °F
Wind: 2 mph from Southwest

Location: Mecca Airport

Current Time: Oct 30, 2014 at 5:31:43 PM

Latest Report: Oct 30, 2014 at 5:00 PM


Visibility: N/A

Pressure: 29.77 "Hg

Humidity: 39%

Dew point: 66 °F

Location of MakkahLocation

Historic Weather in Makkah — Graph

°F

Makkah temperature yesterday

Maximum temperature yesterday: 100 °F (at 3:00 PM)
Minimum temperature yesterday: 79 °F (at 6:00 AM)
Average temperature yesterday: 88 °F

Past Weeks' High & Low Weather Summary

 TemperatureHumidityPressure
High106 °F (Oct 27, 2:00 PM)79% (Oct 19, 4:00 AM)29.95 "Hg (Oct 19, 4:00 AM)
Low77 °F (Oct 28, 7:00 AM)18% (Oct 28, 12:00 PM)29.74 "Hg (Oct 18, 4:00 PM)
Average90 °F54%29.85 "Hg
* Reported Oct 15 4:00 PM — Oct 30 4:00 PM, Makkah, Weather by CustomWeather, © 2014

Note: Actual official high and low records may vary slightly from our data, if they occured in-between our weather recording intervals... More about our weather records

Advertising

Makkah weather history for previous 24 hours

 ConditionsComfort  
Time TempWeatherWind HumidityBarometerVisibility
4:00 PM
Oct 30
97 °FSunny.5 mph32%29.77 "Hg10 mi
3:00 PM100 °FSunny.2 mph27%29.77 "Hg10 mi
2:00 PM99 °FSunny.2 mph31%29.77 "Hg10 mi
1:00 PM99 °FSunny.2 mph33%29.80 "Hg10 mi
11:00 AM95 °FSunny.2 mph39%29.86 "Hg10 mi
10:00 AM91 °FSunny.No wind52%29.86 "Hg10 mi
9:00 AM86 °FSunny.No wind62%29.86 "Hg10 mi
8:00 AM79 °FSunny.No wind74%29.86 "Hg10 mi
7:00 AM79 °FSunny.No wind70%29.83 "Hg10 mi
6:00 AM79 °FClear.No wind74%29.83 "Hg10 mi
5:00 AM79 °FClear.No wind79%29.80 "Hg10 mi
4:00 AM81 °FClear.No wind74%29.80 "Hg10 mi
3:00 AM81 °FClear.No wind74%29.80 "Hg10 mi
2:00 AM82 °FClear.No wind70%29.83 "Hg10 mi
1:00 AM84 °FClear.No wind66%29.83 "Hg10 mi
12:00 AM84 °FClear.No wind66%29.83 "Hg10 mi
11:00 PM
Oct 29
86 °FClear.No wind59%29.86 "Hg10 mi
10:00 PM88 °FClear.No wind55%29.86 "Hg10 mi
9:00 PM88 °FClear.No wind55%29.86 "Hg10 mi
8:00 PM88 °FClear.No wind55%29.83 "Hg10 mi
7:00 PM90 °FClear.No wind49%29.83 "Hg10 mi
6:00 PM91 °FClear.No wind49%29.80 "Hg10 mi
5:00 PM97 °FPassing clouds.2 mph39%29.80 "HgN/A
Weather by CustomWeather, © 2014

See weather overviewHow to use our weather pages